Fort Campbell, KY

3:57 PM CDT on August 19, 2017 (GMT -0500)
Campbell Army Air Field

Weather History for KHOP - October, 2013

Change the Weather History Date:

Saturday, October 19, 2013

  Actual Average Record
Temperature  
Mean Temperature 48 °F -  
Max Temperature 54 °F 68 °F 88 °F (2016)
Min Temperature 41 °F 45 °F 32 °F (1996)
Degree Days  
Heating Degree Days 17    
Moisture  
Dew Point 48 °F    
Average Humidity 93    
Maximum Humidity 100    
Minimum Humidity 64    
Precipitation  
Precipitation 0.14 in - - ()
Sea Level Pressure  
Sea Level Pressure 29.99 in    
Wind  
Wind Speed 7 mph (West)    
Max Wind Speed 16 mph    
Max Gust Speed 28 mph    
Visibility 8 miles    
Events Rain    
Averages and records for this station are not official NWS values.
T = Trace of Precipitation, MM = Missing Value Source: NWS Daily Summary

Daily Weather History Graph

Daily Weather History Graph

Search for Another Location

Airport or City:

Trip Planner

Search our weather history database for the weather conditions in past years. The results will help you decide how hot, cold, wet, or windy it might be!

Date:

Astronomy

Oct. 19, 2013 Rise Set
Actual Time 7:01 AM CDT 6:07 PM CDT
Civil Twilight 6:35 AM CDT 6:34 PM CDT
Nautical Twilight 6:04 AM CDT 7:04 PM CDT
Astronomical Twilight 5:34 AM CDT 7:34 PM CDT
Moon 6:37 PM CDT 7:37 AM CDT
Length of Visible Light 11h 59m
Length of Day
11h 06m
Waxing Gibbous, 99% of the Moon is Illuminated
Oct 19
Waxing Gibbous
Oct 26
Last Quarter
Nov 3
New
Nov 9
First Quarter
Nov 17
Full

Hourly Weather History & Observations

Time (CDT) Temp. Windchill Dew Point Humidity Pressure Visibility Wind Dir Wind Speed Gust Speed Precip Events Conditions
12:58 AM 52.5 °F - 51.4 °F 96% 29.96 in 10.0 mi SSW 3.5 mph - N/A   Overcast
1:58 AM 53.4 °F - 50.5 °F 90% 29.94 in 10.0 mi South 3.5 mph - N/A   Overcast
2:58 AM 54.1 °F - 50.7 °F 88% 29.92 in 10.0 mi South 3.5 mph - N/A   Overcast
3:58 AM 54.0 °F - 50.7 °F 89% 29.90 in 10.0 mi South 4.6 mph - N/A   Overcast
4:58 AM 53.8 °F - 51.3 °F 91% 29.89 in 10.0 mi SW 4.6 mph - N/A   Overcast
5:43 AM 53.6 °F - 51.8 °F 94% 29.90 in 9.0 mi WSW 4.6 mph - N/A   Overcast
5:54 AM 53.6 °F - 51.8 °F 94% 29.90 in 9.0 mi SW 5.8 mph - N/A   Overcast
5:58 AM 53.6 °F - 52.5 °F 96% 29.91 in 9.0 mi SSW 5.8 mph - N/A   Overcast
6:37 AM 53.6 °F - 51.8 °F 94% 29.90 in 10.0 mi South 6.9 mph - N/A   Overcast
6:45 AM 53.6 °F - 53.6 °F 100% 29.90 in 9.0 mi SSW 5.8 mph - N/A   Overcast
6:55 AM 53.6 °F - 53.6 °F 100% 29.89 in 4.0 mi West 4.6 mph - N/A   Overcast
6:58 AM 53.4 °F - 53.1 °F 99% 29.90 in 3.0 mi WSW 4.6 mph - N/A   Overcast
7:00 AM 53.6 °F - 53.6 °F 100% 29.89 in 2.5 mi WSW 4.6 mph - N/A   Overcast
7:05 AM 53.6 °F - 53.6 °F 100% 29.89 in 2.0 mi WSW 4.6 mph - N/A   Overcast
7:07 AM 53.6 °F - 53.6 °F 100% 29.90 in 2.0 mi WSW 4.6 mph - N/A   Overcast
7:09 AM 53.6 °F - 53.6 °F 100% 29.90 in 2.0 mi WSW 3.5 mph - N/A   Overcast
7:15 AM 53.6 °F - 53.6 °F 100% 29.89 in 3.0 mi SSW 3.5 mph - N/A   Overcast
7:38 AM 53.6 °F - 53.6 °F 100% 29.91 in 4.0 mi WSW 5.8 mph - N/A   Light Drizzle
7:45 AM 53.6 °F - 53.6 °F 100% 29.91 in 2.5 mi WSW 5.8 mph - N/A Rain Light Rain
7:48 AM 53.6 °F - 53.6 °F 100% 29.91 in 3.0 mi SW 6.9 mph - N/A Rain Light Rain
7:58 AM 53.4 °F - 53.4 °F 100% 29.93 in 7.0 mi WSW 6.9 mph - 0.01 in   Light Drizzle
8:09 AM 53.6 °F - 53.6 °F 100% 29.93 in 5.0 mi West 10.4 mph - N/A   Light Drizzle
8:15 AM 53.6 °F - 53.6 °F 100% 29.94 in 2.5 mi West 12.7 mph - N/A Rain Rain
8:19 AM 53.6 °F - 53.6 °F 100% 29.95 in 2.5 mi NW 12.7 mph - N/A Rain Heavy Rain
8:24 AM 51.8 °F - 51.8 °F 100% 29.95 in 3.0 mi NW 15.0 mph 25.3 mph N/A Rain Rain
8:28 AM 51.8 °F - 51.8 °F 100% 29.96 in 6.0 mi NW 15.0 mph 25.3 mph N/A Rain Light Rain
8:50 AM 50.0 °F - 50.0 °F 100% 29.97 in 9.0 mi NW 16.1 mph 27.6 mph N/A Rain Light Rain
8:51 AM 50.0 °F - 50.0 °F 100% 29.97 in 8.0 mi NW 16.1 mph 27.6 mph N/A Rain Light Rain
8:53 AM 50.0 °F - 50.0 °F 100% 29.98 in 8.0 mi NW 13.8 mph 25.3 mph N/A Rain Light Rain
8:58 AM 49.1 °F - 49.1 °F 100% 29.99 in 7.0 mi NW 13.8 mph - 0.08 in Rain Rain
9:03 AM 48.2 °F - 48.2 °F 100% 29.97 in 7.0 mi NW 13.8 mph - N/A Rain Rain
9:05 AM 48.2 °F - 48.2 °F 100% 29.97 in 7.0 mi NW 12.7 mph - N/A Rain Rain
9:11 AM 48.2 °F - 48.2 °F 100% 29.97 in 8.0 mi NNW 8.1 mph 17.3 mph N/A Rain Light Rain
9:53 AM 48.2 °F - 48.2 °F 100% 30.00 in 10.0 mi NW 8.1 mph - N/A   Mostly Cloudy
9:56 AM 48.2 °F - 48.2 °F 100% 30.00 in 10.0 mi NW 8.1 mph - N/A   Mostly Cloudy
9:58 AM 48.2 °F - 48.2 °F 100% 30.01 in 10.0 mi WNW 8.1 mph - 0.05 in   Mostly Cloudy
10:35 AM 48.2 °F - 48.2 °F 100% 30.01 in 10.0 mi WNW 10.4 mph - N/A   Overcast
10:58 AM 49.1 °F - 48.4 °F 97% 30.02 in 10.0 mi WNW 8.1 mph - N/A   Overcast
11:14 AM 50.0 °F - 48.2 °F 94% 30.01 in 10.0 mi WNW 8.1 mph - N/A   Overcast
11:15 AM 50.0 °F - 48.2 °F 94% 30.01 in 10.0 mi NW 9.2 mph - N/A   Overcast
11:16 AM 50.0 °F - 48.2 °F 94% 30.01 in 10.0 mi NW 10.4 mph - N/A   Overcast
11:18 AM 50.0 °F - 48.2 °F 94% 30.01 in 10.0 mi NW 11.5 mph - N/A   Overcast
11:24 AM 50.0 °F - 48.2 °F 94% 30.01 in 10.0 mi NW 8.1 mph - N/A   Overcast
11:26 AM 50.0 °F - 48.2 °F 94% 30.01 in 10.0 mi NW 9.2 mph - N/A   Overcast
11:37 AM 50.0 °F - 48.2 °F 94% 30.01 in 10.0 mi NW 5.8 mph - N/A   Overcast
11:50 AM 50.0 °F - 46.4 °F 87% 30.01 in 10.0 mi NW 10.4 mph - N/A   Overcast
11:58 AM 49.6 °F - 47.3 °F 92% 30.02 in 10.0 mi WNW 13.8 mph - N/A   Overcast
12:53 PM 50.0 °F - 46.4 °F 87% 30.01 in 10.0 mi WNW 9.2 mph - N/A   Overcast
12:54 PM 50.0 °F - 46.4 °F 87% 30.01 in 10.0 mi NNW 9.2 mph - N/A   Overcast
12:58 PM 50.0 °F - 47.1 °F 90% 30.02 in 10.0 mi NNW 8.1 mph - N/A   Overcast
1:05 PM 50.0 °F - 46.4 °F 87% 30.01 in 10.0 mi NW 6.9 mph - N/A   Overcast
1:10 PM 50.0 °F - 48.2 °F 94% 30.01 in 10.0 mi NNW 5.8 mph - N/A   Overcast
1:12 PM 50.0 °F - 48.2 °F 94% 30.01 in 10.0 mi NNW 8.1 mph - N/A   Overcast
1:51 PM 50.0 °F - 44.6 °F 82% 30.01 in 10.0 mi WNW 12.7 mph - N/A   Overcast
1:53 PM 50.0 °F - 44.6 °F 82% 30.01 in 10.0 mi WNW 9.2 mph - N/A   Overcast
1:56 PM 50.0 °F - 44.6 °F 82% 30.02 in 10.0 mi WNW 9.2 mph - N/A   Overcast
1:58 PM 50.7 °F - 44.8 °F 80% 30.03 in 10.0 mi WNW 11.5 mph - N/A   Overcast
2:43 PM 51.8 °F - 44.6 °F 76% 30.02 in 10.0 mi WNW 13.8 mph - N/A   Overcast
2:44 PM 51.8 °F - 44.6 °F 76% 30.02 in 10.0 mi West 12.7 mph - N/A   Overcast
2:58 PM 51.6 °F - 44.6 °F 77% 30.03 in 10.0 mi WNW 12.7 mph - N/A   Overcast
3:02 PM 51.8 °F - 42.8 °F 71% 30.02 in 10.0 mi West 10.4 mph - N/A   Overcast
3:28 PM 51.8 °F - 41.0 °F 67% 30.03 in 10.0 mi West 10.4 mph - N/A   Mostly Cloudy
3:54 PM 51.8 °F - 42.8 °F 71% 30.03 in 10.0 mi NW 6.9 mph - N/A   Mostly Cloudy
3:58 PM 50.9 °F - 42.4 °F 73% 30.04 in 10.0 mi NW 4.6 mph - N/A   Scattered Clouds
4:58 PM 53.1 °F - 41.0 °F 64% 30.03 in 10.0 mi WSW 8.1 mph - N/A   Partly Cloudy
5:58 PM 49.8 °F - 41.7 °F 74% 30.04 in 10.0 mi SW 6.9 mph - N/A   Clear
6:57 PM 46.4 °F - 42.8 °F 87% 30.03 in 9.0 mi SSW 2.3 mph - N/A   Clear
6:58 PM 46.2 °F - 42.3 °F 86% 30.05 in 8.0 mi SSW 2.3 mph - N/A   Clear
7:07 PM 44.6 °F - 41.0 °F 87% 30.04 in 10.0 mi WSW 2.3 mph - N/A   Clear
7:14 PM 44.6 °F - 42.8 °F 93% 30.04 in 9.0 mi SW 2.3 mph - N/A   Clear
7:55 PM 44.6 °F 43.1 °F 42.8 °F 93% 30.04 in 9.0 mi SSW 3.5 mph - N/A   Clear
7:58 PM 45.0 °F 43.5 °F 43.3 °F 94% 30.06 in 10.0 mi SSW 3.5 mph - N/A   Clear
7:59 PM 44.6 °F 43.1 °F 42.8 °F 93% 30.05 in 9.0 mi SW 3.5 mph - N/A   Clear
8:38 PM 42.8 °F 41.1 °F 42.8 °F 100% 30.06 in 9.0 mi SW 3.5 mph - N/A   Clear
8:45 PM 42.8 °F 41.1 °F 42.8 °F 100% 30.06 in 9.0 mi SW 3.5 mph - N/A   Clear
8:53 PM 42.8 °F 41.1 °F 42.8 °F 100% 30.06 in 9.0 mi SW 3.5 mph - N/A   Clear
8:57 PM 44.6 °F 43.1 °F 42.8 °F 93% 30.06 in 9.0 mi SW 3.5 mph - N/A   Clear
8:58 PM 43.7 °F 41.1 °F 43.2 °F 98% 30.07 in 9.0 mi SW 4.6 mph - N/A   Clear
9:07 PM 42.8 °F 40.1 °F 42.8 °F 100% 30.06 in 5.0 mi SW 4.6 mph - N/A   Clear
9:12 PM 42.8 °F 39.3 °F 42.8 °F 100% 30.06 in 5.0 mi SW 5.8 mph - N/A   Clear
9:19 PM 42.8 °F 40.1 °F 41.0 °F 93% 30.06 in 10.0 mi SW 4.6 mph - N/A   Clear
9:58 PM 42.6 °F - 42.3 °F 99% 30.08 in 10.0 mi SW 2.3 mph - N/A   Clear
10:58 PM 42.4 °F - 42.3 °F 99% 30.09 in 10.0 mi SSW 2.3 mph - N/A   Clear
11:58 PM 41.9 °F - 41.7 °F 99% 30.07 in 10.0 mi SW 2.3 mph - N/A   Clear